Weather History for Fayetteville, AR

Change the Weather History Date:

Sunday, October 7, 2012

  Actual Average Record
Temperature  
Mean Temperature 42 °F 60 °F  
Max Temperature 54 °F 73 °F 92 °F (1963)
Min Temperature 33 °F 48 °F 24 °F (1952)
Degree Days  
Heating Degree Days 22 6  
Month to date heating degree days 37  
Since 1 July heating degree days 89  
Cooling Degree Days 0 1  
Month to date cooling degree days 10  
Year to date cooling degree days 1293  
Moisture  
Dew Point 34 °F    
Average Humidity 72    
Maximum Humidity 97    
Minimum Humidity 43    
Precipitation  
Precipitation 0.00 in 0.15 in 0.42 in (2004)
Month to date precipitation 1.03  
Year to date precipitation 37.74  
Sea Level Pressure  
Sea Level Pressure 30.28 in    
Wind  
Wind Speed 2 mph (WSW)    
Max Wind Speed 13 mph    
Max Gust Speed -    
Visibility 10 miles    
Events      
T = Trace of Precipitation, MM = Missing Value Source: NWS Daily Summary

Daily Weather History Graph

Daily Weather History Graph

Search for Another Location

Airport:

Trip Planner

Search our weather history database for the weather conditions in past years. The results will help you decide how hot, cold, wet, or windy it might be!

Date:

Astronomy

Oct. 07, 2012 Rise Set
Actual Time 7:17 AM CDT 6:51 PM CDT
Civil Twilight 6:51 AM CDT 7:16 PM CDT
Nautical Twilight 6:21 AM CDT 7:46 PM CDT
Astronomical Twilight 5:51 AM CDT 8:15 PM CDT
Moon No Moon Rise 1:47 PM CDT (10/7)
Length of Visible Light 12h 25m
Length of Day
11h 33m
Waning Gibbous, 56% of the Moon is Illuminated
Oct 7
Waning Gibbous
Oct 8
Last Quarter
Oct 15
New
Oct 21
First Quarter
Oct 29
Full

Hourly Weather History & Observations

Time (CDT) Temp. Windchill Dew Point Humidity Pressure Visibility Wind Dir Wind Speed Gust Speed Precip Events Conditions
12:53 AM 36.0 °F - 35.1 °F 97% 30.31 in 10.0 mi Calm Calm - N/A   Mostly Cloudy
1:53 AM 35.1 °F 32.2 °F 34.0 °F 96% 30.32 in 6.0 mi South 3.5 mph - N/A   Scattered Clouds
2:53 AM 36.0 °F 33.3 °F 35.1 °F 97% 30.31 in 10.0 mi South 3.5 mph - N/A   Overcast
3:53 AM 37.9 °F - 37.0 °F 97% 30.31 in 10.0 mi Calm Calm - N/A   Overcast
4:53 AM 39.9 °F 37.8 °F 34.0 °F 79% 30.31 in 10.0 mi North 3.5 mph - N/A   Overcast
5:53 AM 37.0 °F - 32.0 °F 82% 30.30 in 10.0 mi Calm Calm - N/A   Clear
6:53 AM 33.1 °F - 32.0 °F 96% 30.30 in 10.0 mi Calm Calm - N/A   Clear
7:53 AM 33.1 °F - 30.9 °F 92% 30.31 in 10.0 mi Calm Calm - N/A   Clear
8:53 AM 36.0 °F - 34.0 °F 93% 30.32 in 10.0 mi Calm Calm - N/A   Clear
9:53 AM 42.1 °F - 34.0 °F 73% 30.33 in 10.0 mi Calm Calm - N/A   Clear
10:53 AM 46.0 °F 43.9 °F 32.0 °F 58% 30.32 in 10.0 mi Variable 4.6 mph - N/A   Clear
11:53 AM 48.9 °F - 33.1 °F 54% 30.31 in 10.0 mi East 6.9 mph - N/A   Clear
12:53 PM 51.1 °F - 32.0 °F 48% 30.30 in 10.0 mi WNW 3.5 mph - N/A   Clear
1:53 PM 51.1 °F - 30.0 °F 44% 30.27 in 10.0 mi Variable 4.6 mph - N/A   Clear
2:53 PM 52.0 °F - 30.0 °F 43% 30.24 in 10.0 mi NW 5.8 mph - N/A   Clear
3:53 PM 51.1 °F - 30.0 °F 44% 30.22 in 10.0 mi Calm Calm - N/A   Clear
4:53 PM 50.0 °F - 32.0 °F 50% 30.20 in 10.0 mi NNW 6.9 mph - N/A   Clear
5:53 PM 50.0 °F - 30.9 °F 48% 30.22 in 10.0 mi NW 4.6 mph - N/A   Mostly Cloudy
6:53 PM 48.0 °F - 33.1 °F 56% 30.21 in 10.0 mi Calm Calm - N/A   Overcast
7:53 PM 46.9 °F - 36.0 °F 66% 30.22 in 10.0 mi South 4.6 mph - N/A   Overcast
8:53 PM 45.0 °F 38.9 °F 37.0 °F 74% 30.24 in 10.0 mi SSW 12.7 mph - N/A   Overcast
9:53 PM 44.1 °F 40.1 °F 37.0 °F 76% 30.25 in 10.0 mi SSW 6.9 mph - N/A   Overcast
10:53 PM 43.0 °F 41.3 °F 37.9 °F 82% 30.24 in 10.0 mi WSW 3.5 mph - N/A   Overcast
11:53 PM 42.1 °F 40.2 °F 37.9 °F 85% 30.24 in 10.0 mi WSW 3.5 mph - N/A   Mostly Cloudy